Hourly Data Report for May 07, 2004

TORONTO CITY
ONTARIO

43°40'00.000" N
79°24'00.000" W
112.50 m
6158355
71508
XTO

Download Data

Hourly Data (May 2004)
Hourly Data Report for May 7, 2004
TIME
LST
Temp Definition
°C
Dew Point Definition
°C
Rel Hum Definition
%
Precip. Amount Definition
mm

Wind Dir Definition
10's deg

Wind Spd Definition
km/h
Visibility Definition
km
Stn Press Definition
kPa
Hmdx Definition


Wind Chill Definition


Weather Definition


00:00 15.9 10.8 72   LegendMM LegendMM LegendMM 100.00     LegendNANA
01:00 15.1 5.5 53   LegendMM LegendMM LegendMM 100.07     LegendNANA
02:00 13.7 2.6 47   LegendMM LegendMM LegendMM 100.12     LegendNANA
03:00 12.3 2.5 51   LegendMM LegendMM LegendMM 100.22     LegendNANA
04:00 10.8 2.0 54   LegendMM LegendMM LegendMM 100.39     LegendNANA
05:00 9.4 1.0 56   LegendMM LegendMM LegendMM 100.54     LegendNANA
06:00 8.7 1.3 60   LegendMM LegendMM LegendMM 100.68     LegendNANA
07:00 9.3 2.7 63   LegendMM LegendMM LegendMM 100.76     LegendNANA
08:00 11.3 3.7 59   LegendMM LegendMM LegendMM 100.79     LegendNANA
09:00 12.0 4.5 60   LegendMM LegendMM LegendMM 100.91     LegendNANA
10:00 13.2 3.2 51   LegendMM LegendMM LegendMM 100.99     LegendNANA
11:00 14.6 2.6 44   LegendMM LegendMM LegendMM 101.09     LegendNANA
12:00 15.4 0.1 35   LegendMM LegendMM LegendMM 101.06     LegendNANA
13:00 15.0 -0.9 34   LegendMM LegendMM LegendMM 101.12     LegendNANA
14:00 13.8 -3.1 31   LegendMM LegendMM LegendMM 101.19     LegendNANA
15:00 14.3 -2.3 32   LegendMM LegendMM LegendMM 101.18     LegendNANA
16:00 13.0 -4.9 28   LegendMM LegendMM LegendMM 101.21     LegendNANA
17:00 12.5 -4.0 31   LegendMM LegendMM LegendMM 101.23     LegendNANA
18:00 11.5 -4.5 32   LegendMM LegendMM LegendMM 101.27     LegendNANA
19:00 10.0 -4.7 35   LegendMM LegendMM LegendMM 101.33     LegendNANA
20:00 9.3 -5.0 36   LegendMM LegendMM LegendMM 101.37     LegendNANA
21:00 8.6 -5.2 37   LegendMM LegendMM LegendMM 101.36     LegendNANA
22:00 8.8 -5.1 37   LegendMM LegendMM LegendMM 101.42     LegendNANA
23:00 8.4 -5.0 38   LegendMM LegendMM LegendMM 101.41     LegendNANA

Notes on Data Quality.

Legend

  • E = Estimated
  • M = Missing
  • NA = Not Available*
  • [empty] = Indicates an unobserved value
Date modified: